EW1168 Weather Reports


time (UTC)temp
F
wind
direction
speed
knots
gust
knots
rain 1hr
in
rain 24hr
in
rain mn
in
humidity
%
barometer
mb
20260510112856 57 350 7.0 15.6 0.00 0.00 0.00 75 1013.8
20260510111856 57 334 7.0 14.8 0.00 0.00 0.00 76 1013.8
20260510110851 57 355 6.1 13.9 0.00 0.00 0.00 76 1013.8
20260510105851 57 334 7.0 15.6 0.00 0.00 0.00 75 1014.0
20260510105329 57 331 7.0 14.8 0.00 0.00 0.00 76 1014.0
20260510103856 57 24 7.0 16.5 0.00 0.00 0.00 76 1014.1
20260510103806 57 338 6.1 12.2 0.00 0.00 0.00 77 1014.2
20260510101851 56 42 7.8 18.2 0.00 0.00 0.00 78 1014.1
20260510100851 57 349 7.0 13.0 0.00 0.00 0.00 78 1014.1
20260510095855 56 38 7.8 14.8 0.00 0.00 0.00 79 1014.2
20260510094850 56 5 7.0 16.5 0.00 0.00 0.00 78 1014.4
20260510094339 57 346 7.0 13.0 0.00 0.00 0.00 79 1014.4
20260510092850 57 0 7.8 15.6 0.00 0.00 0.00 78 1014.4
20260510091851 58 308 6.1 13.0 0.00 0.00 0.00 77 1014.7
20260510090851 58 38 6.1 11.3 0.00 0.00 0.00 78 1014.7
20260510085851 57 317 7.0 14.8 0.00 0.00 0.00 78 1014.7
20260510084851 57 342 7.8 14.8 0.00 0.00 0.00 80 1014.7
20260510083855 57 355 7.8 16.5 0.00 0.00 0.00 79 1014.7
20260510083337 57 316 7.8 13.9 0.00 0.00 0.00 78 1014.8
20260510081850 58 348 7.0 14.8 0.00 0.00 0.00 77 1014.8
20260510080851 58 337 6.1 12.2 0.00 0.00 0.00 73 1014.8
20260510075851 58 59 5.2 12.2 0.00 0.00 0.00 71 1014.8
20260510074851 58 28 5.2 12.2 0.00 0.00 0.00 72 1014.9
20260510073850 58 349 5.2 10.4 0.00 0.00 0.00 72 1014.8
20260510072850 57 338 5.2 13.0 0.00 0.00 0.00 75 1014.9
20260510071850 57 64 6.1 11.3 0.00 0.00 0.00 77 1014.9
20260510071822 58 36 5.2 12.2 0.00 0.00 0.00 76 1015.0
20260510065850 58 342 5.2 12.2 0.00 0.00 0.00 66 1014.9
20260510064851 57 341 5.2 11.3 0.00 0.00 0.00 66 1014.9
20260510063851 57 314 5.2 13.0 0.00 0.00 0.00 67 1014.8
20260510063340 57 343 4.3 10.4 0.00 0.00 0.00 67 1014.8
20260510061851 56 80 5.2 10.4 0.00 0.00 0.00 66 1014.8
20260510060856 56 0 5.2 12.2 0.00 0.00 0.00 66 1014.8
20260510055851 56 5 5.2 14.8 0.00 0.00 0.00 68 1014.8
20260510054851 56 325 4.3 10.4 0.00 0.00 0.00 69 1014.8
20260510053851 56 338 4.3 11.3 0.00 0.00 0.00 70 1014.8
20260510052848 56 332 4.3 11.3 0.00 0.00 0.00 71 1014.8
20260510051848 55 34 4.3 12.2 0.00 0.00 0.00 73 1014.8
20260510050846 55 304 4.3 11.3 0.00 0.00 0.00 73 1014.7
20260510045846 55 312 5.2 11.3 0.00 0.00 0.00 74 1014.6
20260510044846 55 346 4.3 10.4 0.00 0.00 0.00 74 1014.6
20260510043846 55 23 5.2 13.0 0.00 0.00 0.00 74 1014.6
20260510042846 55 17 5.2 12.2 0.00 0.00 0.00 74 1014.6
20260510041846 55 67 5.2 10.4 0.00 0.00 0.00 76 1014.8
20260510040845 55 15 4.3 11.3 0.00 0.00 0.00 78 1014.9
20260510035850 55 35 4.3 12.2 0.00 0.00 0.00 80 1014.8
20260510034846 55 5 5.2 10.4 0.00 0.00 0.00 80 1014.7
20260510033846 55 327 4.3 9.6 0.00 0.00 0.00 81 1014.8
20260510033323 55 29 4.3 10.4 0.00 0.00 0.00 81 1014.8
20260510031851 55 0 3.5 8.7 0.00 0.00 0.00 80 1014.8
20260510031332 55 38 4.3 9.6 0.00 0.00 0.00 81 1014.7
20260510025846 55 343 4.3 10.4 0.00 0.00 0.00 82 1014.7
20260510024844 55 325 4.3 9.6 0.00 0.00 0.00 81 1014.8
20260510023843 55 332 5.2 11.3 0.00 0.00 0.00 81 1014.8
20260510023320 55 348 4.3 10.4 0.00 0.00 0.00 81 1014.8
20260510021844 55 323 5.2 10.4 0.00 0.00 0.00 81 1014.9
20260510020843 55 5 4.3 9.6 0.00 0.00 0.00 82 1015.0
20260510015844 55 348 4.3 8.7 0.00 0.00 0.00 82 1015.0
20260510015318 56 335 4.3 9.6 0.00 0.00 0.00 83 1015.0
20260510014317 56 53 4.3 10.4 0.00 0.00 0.00 82 1015.1
20260510012842 56 24 4.3 9.6 0.00 0.00 0.00 82 1015.2
20260510012315 56 339 4.3 10.4 0.00 0.00 0.00 82 1015.1
20260510010840 56 306 4.3 8.7 0.00 0.00 0.00 83 1015.0
20260510005845 56 47 3.5 7.8 0.00 0.00 0.00 83 1015.0
20260510004839 56 355 3.5 11.3 0.00 0.00 0.00 83 1015.0
20260510003840 56 5 3.5 9.6 0.00 0.00 0.00 83 1015.3
20260510002840 56 330 4.3 8.7 0.00 0.00 0.00 83 1015.2
20260510002322 56 346 4.3 7.8 0.00 0.00 0.00 83 1015.4
20260510000840 56 46 3.5 10.4 0.00 0.00 0.00 84 1015.7
20260509235839 56 44 4.3 9.6 0.00 0.00 0.00 84 1015.7
20260509234840 56 57 3.5 10.4 0.00 0.00 0.00 84 1015.7
20260509233839 56 333 2.6 8.7 0.00 0.00 0.00 83 1015.8
20260509232839 56 90 4.3 8.7 0.00 0.00 0.00 83 1015.8
20260509231839 56 348 4.3 8.7 0.00 0.00 0.00 82 1015.8
20260509230844 57 313 4.3 9.6 0.00 0.00 0.00 81 1015.7
20260509225838 57 59 5.2 11.3 0.00 0.00 0.00 81 1015.7
20260509224843 57 338 3.5 8.7 0.00 0.00 0.00 80 1015.7
20260509223837 57 319 3.5 7.8 0.00 0.00 0.00 80 1015.5
20260509222843 57 28 3.5 8.7 0.00 0.00 0.00 79 1015.7
20260509221837 57 38 3.5 7.0 0.00 0.00 0.00 79 1015.7
20260509220842 57 0 3.5 11.3 0.00 0.00 0.00 79 1015.7
20260509215842 57 355 3.5 10.4 0.00 0.00 0.00 79 1015.7
20260509214837 56 14 3.5 8.7 0.00 0.00 0.00 79 1015.7
20260509213836 56 324 3.5 10.4 0.00 0.00 0.00 80 1015.7
20260509212842 56 17 3.5 7.0 0.00 0.00 0.00 80 1015.8
20260509211836 56 46 3.5 8.7 0.00 0.00 0.00 81 1015.8
20260509210836 56 324 4.3 9.6 0.00 0.00 0.00 81 1015.8
20260509205842 57 338 4.3 9.6 0.00 0.00 0.00 81 1015.7
20260509205315 57 30 3.5 7.8 0.00 0.00 0.00 81 1015.7
20260509203834 57 318 4.3 8.7 0.00 0.00 0.00 82 1015.7
20260509202839 57 16 3.5 7.8 0.00 0.00 0.00 82 1015.6
20260509201834 57 336 3.5 7.8 0.00 0.00 0.00 82 1015.6
20260509200835 57 0 3.5 7.0 0.00 0.00 0.00 82 1015.6
20260509195834 57 341 3.5 8.7 0.00 0.00 0.00 81 1015.7
20260509194834 57 36 3.5 8.7 0.00 0.00 0.00 81 1015.5
20260509194321 57 38 4.3 8.7 0.00 0.00 0.00 81 1015.4
20260509192834 57 336 4.3 8.7 0.00 0.00 0.00 81 1015.5
20260509191832 57 318 3.5 8.7 0.00 0.00 0.00 81 1015.6
20260509190830 58 339 3.5 8.7 0.00 0.00 0.00 80 1015.4
20260509185830 58 49 3.5 7.0 0.00 0.00 0.00 79 1015.4
20260509184830 58 355 3.5 9.6 0.00 0.00 0.00 79 1015.3
20260509183830 59 336 3.5 8.7 0.00 0.00 0.00 78 1015.4
20260509182831 59 38 3.5 7.8 0.00 0.00 0.00 77 1015.3
20260509181826 59 335 3.5 8.7 0.00 0.00 0.00 76 1015.3
20260509180826 60 331 4.3 7.8 0.00 0.00 0.00 75 1015.1
20260509175826 60 19 4.3 7.8 0.00 0.00 0.00 75 1015.1
20260509174836 60 315 4.3 11.3 0.00 0.00 0.00 75 1015.2
20260509173831 60 328 4.3 7.8 0.00 0.00 0.00 75 1015.2
20260509172824 60 333 5.2 12.2 0.00 0.00 0.00 75 1015.2
20260509171824 60 297 6.1 10.4 0.00 0.00 0.00 75 1015.1
20260509170822 60 344 6.1 11.3 0.00 0.00 0.00 75 1015.2
20260509165822 61 332 6.1 10.4 0.00 0.00 0.00 74 1015.3
20260509164822 61 331 4.3 8.7 0.00 0.00 0.00 73 1015.5
20260509163822 61 326 6.1 11.3 0.00 0.00 0.00 74 1015.5
20260509163310 61 321 6.1 12.2 0.00 0.00 0.00 73 1015.6
20260509161822 61 330 6.1 10.4 0.00 0.00 0.00 73 1015.5
20260509160822 61 77 6.1 12.2 0.00 0.00 0.00 73 1015.5
20260509155821 62 5 6.1 10.4 0.00 0.00 0.00 73 1015.4
20260509154822 62 336 6.1 9.6 0.00 0.00 0.00 73 1015.4
20260509153822 62 51 7.0 13.9 0.00 0.00 0.00 73 1015.4
20260509152827 62 328 6.1 12.2 0.00 0.00 0.00 73 1015.4
20260509151822 62 51 6.1 10.4 0.00 0.00 0.00 73 1015.4
20260509150822 62 47 4.3 10.4 0.00 0.00 0.00 73 1015.5
20260509150304 63 22 4.3 10.4 0.00 0.00 0.00 70 1015.5
20260509144822 63 340 4.3 11.3 0.00 0.00 0.00 69 1015.4
20260509143852 63 311 6.1 10.4 0.00 0.00 0.00 69 1015.6
20260509141819 63 0 7.0 12.2 0.00 0.00 0.00 70 1015.7
20260509140820 63 316 7.0 11.3 0.00 0.00 0.00 70 1015.7
20260509135820 63 317 7.0 13.0 0.00 0.00 0.00 70 1015.7
20260509134817 62 338 6.1 11.3 0.00 0.00 0.00 70 1015.8
20260509133818 63 5 6.1 12.2 0.00 0.00 0.00 71 1015.9
20260509132817 63 5 6.1 11.3 0.00 0.00 0.00 72 1015.9
20260509132254 62 341 6.1 11.3 0.00 0.00 0.00 72 1016.1
20260509130818 62 331 6.1 10.4 0.00 0.00 0.00 73 1016.1
20260509125820 63 332 6.1 10.4 0.00 0.00 0.00 71 1016.1
20260509124816 62 79 7.0 10.4 0.00 0.00 0.00 72 1016.2
20260509123815 63 319 6.1 9.6 0.00 0.00 0.00 72 1016.2
20260509122816 62 331 7.0 11.3 0.00 0.00 0.00 72 1016.4
20260509121816 63 355 6.1 11.3 0.00 0.00 0.00 69 1016.5
20260509120816 64 5 6.1 10.4 0.00 0.00 0.00 67 1016.5
20260509115814 64 334 7.0 11.3 0.00 0.00 0.00 65 1016.6
20260509114813 64 16 7.0 11.3 0.00 0.00 0.00 62 1016.7
20260509113813 65 325 6.1 10.4 0.00 0.00 0.00 61 1016.7